TimeMDT,TemperatureF,Dew PointF,Humidity,Sea Level PressureIn,VisibilityMPH,Wind Direction,Wind SpeedMPH,Gust SpeedMPH,PrecipitationIn,Events,Conditions,WindDirDegrees,DateUTC
12:53 AM,59.0,57.0,93,29.99,10.0,Calm,Calm,-,N/A,,Overcast,0,2013-08-08 06:53:00
1:53 AM,57.9,55.0,90,29.97,10.0,ESE,4.6,-,N/A,,Mostly Cloudy,110,2013-08-08 07:53:00
2:53 AM,57.9,55.0,90,29.95,10.0,North,3.5,-,N/A,,Clear,350,2013-08-08 08:53:00
3:53 AM,57.9,55.9,93,29.94,10.0,Calm,Calm,-,N/A,,Clear,0,2013-08-08 09:53:00
4:53 AM,57.9,55.9,93,29.97,10.0,Calm,Calm,-,N/A,,Overcast,0,2013-08-08 10:53:00
5:53 AM,57.9,55.9,93,29.99,10.0,SE,6.9,-,0.02,Rain,Light Rain,140,2013-08-08 11:53:00
6:53 AM,57.9,55.9,93,30.01,10.0,ENE,3.5,-,0.00,Rain,Light Rain,70,2013-08-08 12:53:00
7:53 AM,57.0,54.0,89,30.02,10.0,Calm,Calm,-,0.01,,Mostly Cloudy,0,2013-08-08 13:53:00
8:53 AM,59.0,55.9,90,30.04,10.0,Calm,Calm,-,N/A,,Mostly Cloudy,0,2013-08-08 14:53:00
9:53 AM,62.1,55.0,78,30.03,10.0,NE,3.5,-,N/A,,Partly Cloudy,40,2013-08-08 15:53:00
10:53 AM,66.0,51.1,59,30.02,10.0,Calm,Calm,-,N/A,,Clear,0,2013-08-08 16:53:00
11:53 AM,68.0,52.0,56,30.00,10.0,Calm,Calm,-,N/A,,Clear,0,2013-08-08 17:53:00
12:53 PM,72.0,54.0,53,29.97,10.0,Variable,5.8,-,N/A,,Mostly Cloudy,0,2013-08-08 18:53:00
1:53 PM,75.9,53.1,45,29.95,10.0,SSW,6.9,-,N/A,,Clear,210,2013-08-08 19:53:00
2:53 PM,78.1,46.9,33,29.94,10.0,West,8.1,-,N/A,,Clear,280,2013-08-08 20:53:00
3:53 PM,79.0,50.0,36,29.91,10.0,ENE,23.0,28.8,N/A,,Clear,60,2013-08-08 21:53:00
4:53 PM,77.0,51.1,40,29.92,10.0,NE,10.4,17.3,N/A,,Clear,50,2013-08-08 22:53:00
5:53 PM,75.9,50.0,40,29.93,10.0,ENE,18.4,23.0,N/A,,Partly Cloudy,70,2013-08-08 23:53:00
6:53 PM,73.9,48.0,40,29.94,10.0,ENE,16.1,-,N/A,,Clear,60,2013-08-09 00:53:00
7:53 PM,70.0,46.0,42,29.96,10.0,ENE,11.5,-,N/A,,Clear,60,2013-08-09 01:53:00
8:53 PM,63.0,46.9,56,29.98,10.0,NNE,5.8,-,N/A,,Clear,20,2013-08-09 02:53:00
9:53 PM,62.1,46.9,58,30.00,10.0,East,3.5,-,N/A,,Clear,100,2013-08-09 03:53:00
10:53 PM,57.9,46.0,65,30.01,10.0,North,4.6,-,N/A,,Clear,360,2013-08-09 04:53:00
11:53 PM,55.0,48.0,77,30.01,10.0,Calm,Calm,-,N/A,,Clear,0,2013-08-09 05:53:00